Temperature
29 29 29 29 29 29 29 30 30 31 31 30 29 29 28 27 26 25 25 24 23 23 22 22 21 21 21 21 21 21 21 20 20 20 20 20 19 19 19 19 18 19 18 18
27 28 28 28 29 29 29 30 30 30 30 29 28 27 26 26 25 25 24 24 23 22 22 21 21 21 21 21 21 20 20 20 20 20 20 20 19 19 19 19 18 18 18 18
27 27 27 27 28 29 29 29 29 29 29 28 27 26 25 25 24 24 24 23 22 22 21 21 21 21 21 21 21 21 20 20 20 20 20 19 19 19 19 19 19 18 18 18
27 26 25 28 29 29 28 28 28 28 28 27 26 25 24 23 23 23 22 22 22 21 21 21 21 21 21 21 21 21 20 20 19 19 19 19 19 19 19 18 18 18 18 18
26 26 26 27 27 27 27 27 27 27 27 26 25 25 24 22 22 21 21 21 21 21 21 21 21 21 21 21 21 20 20 20 19 19 19 19 18 19 18 18 18 18 18 17
25 25 25 27 27 26 27 26 26 26 26 25 25 27 25 22 21 21 20 20 20 21 20 20 20 20 20 20 20 20 19 19 19 19 19 18 18 18 18 18 18 17 17 17
24 25 26 26 25 25 25 25 25 25 24 24 24 24 22 21 20 20 20 20 20 20 20 19 19 20 20 20 19 19 19 19 19 18 18 18 18 18 17 17 17 17 16 16
24 24 25 24 25 25 24 23 23 23 23 22 22 21 20 20 19 19 19 19 19 19 19 19 19 19 19 19 19 19 18 18 18 18 18 17 17 17 17 17 16 16 16 16
24 24 22 22 22 22 21 22 21 21 21 21 20 20 19 19 19 19 18 18 18 18 18 18 18 18 18 19 18 18 18 18 18 17 17 17 17 17 16 16 16 16 15 15
22 22 21 21 20 20 20 20 20 20 20 19 19 19 18 18 18 18 18 18 18 18 18 18 18 18 18 18 18 18 17 17 17 17 17 17 16 16 16 16 15 15 15 15
21 21 20 20 19 19 19 19 19 19 19 19 18 18 18 17 17 17 17 17 17 17 17 17 17 17 17 17 17 17 17 17 16 16 16 16 16 16 16 16 15 15 15 15
21 20 21 20 18 18 18 18 18 18 18 18 17 17 17 17 17 17 17 17 17 17 17 16 16 16 17 17 17 16 16 16 16 16 16 16 16 15 16 15 15 15 15 15
18 18 18 17 17 17 17 17 17 17 17 17 17 17 17 16 16 16 16 16 16 16 16 16 16 16 16 16 16 16 16 16 16 16 16 15 15 15 15 15 15 15 14 14
16 16 16 16 16 16 16 16 16 16 16 16 16 16 16 16 16 16 16 16 16 16 16 16 15 16 16 16 16 16 16 16 15 15 15 15 15 15 14 14 14 14 14 14
15 16 15 15 15 15 15 16 16 15 15 15 16 16 16 15 15 15 15 15 15 15 15 15 15 15 15 15 15 15 15 15 15 15 15 15 14 14 14 14 14 14 14 14
15 15 15 15 15 15 15 15 15 15 15 15 15 15 15 15 15 15 15 15 15 15 15 15 15 15 15 15 15 14 14 15 14 14 14 14 14 14 14 14 14 13 14 13
14 14 14 14 14 14 14 15 15 15 14 15 14 14 14 14 14 14 14 14 14 14 14 14 14 14 14 14 14 14 14 14 14 14 14 14 14 14 14 13 13 13 13 13
14 14 14 14 14 14 14 14 14 14 14 14 14 14 14 14 14 14 14 14 14 14 14 14 14 14 14 14 14 14 14 14 14 14 13 13 13 13 13 13 13 13 13 13
13 13 13 13 13 13 14 14 14 14 14 14 14 14 14 14 14 14 14 14 14 14 14 13 14 13 14 14 14 14 14 14 14 13 13 13 13 13 13 13 13 12 12 12
13 13 13 13 13 13 13 13 13 13 13 13 13 13 13 13 13 13 13 13 13 13 13 13 13 13 13 13 14 14 14 14 14 13 13 13 13 13 12 12 12 12 12 12
13 13 13 13 13 13 13 13 13 13 13 13 13 13 13 13 13 13 13 13 13 13 13 13 13 13 13 13 13 14 14 13 13 13 13 13 12 12 12 12 12 12 12 12
12 13 13 13 13 13 13 13 13 13 13 13 13 13 13 13 13 13 13 13 13 13 13 13 13 13 13 13 13 13 13 13 13 13 12 12 12 12 12 12 12 12 11 11
12 12 12 13 13 12 13 13 13 13 13 13 13 13 13 13 13 13 13 13 13 13 13 13 13 13 13 13 13 13 13 12 12 12 12 12 12 12 12 11 11 11 11 11
12 12 12 12 12 12 12 13 12 12 13 13 13 13 12 13 13 13 13 13 13 12 12 12 12 12 12 12 12 12 12 12 12 12 12 12 12 11 11 11 11 11 11 11
12 12 12 12 12 12 12 12 12 12 13 13 12 12 13 12 12 12 12 12 12 12 12 12 12 12 12 12 12 12 12 12 12 12 11 11 11 11 11 11 11 11 11 11
11 12 12 12 12 12 12 12 12 12 12 12 12 12 12 12 12 12 12 12 12 12 12 12 12 12 12 12 12 11 11 11 11 11 11 11 11 11 11 11 10 10 10 10
11 11 11 12 12 12 12 12 12 12 12 12 12 12 12 12 12 12 12 12 12 12 12 12 12 11 12 12 11 11 11 11 11 11 11 11 11 10 10 10 10 10 10 10
Wind_Speed
11 8 10 12 13 14 15 15 14 11 10 6 3 2 2 3 4 6 7 8 8 8 8 8 9 9 10 10 10 10 10 10 10 9 8 8 7 7 6 6 6 5 5 5
13 11 11 12 14 14 15 14 14 12 9 4 3 2 2 3 4 6 7 7 7 7 8 8 9 9 9 10 9 10 10 10 9 9 9 8 8 8 7 7 6 6 6 5
14 14 13 17 17 16 13 12 13 13 8 4 3 3 3 3 4 5 6 6 6 6 6 7 7 8 9 10 10 10 10 9 9 9 9 8 8 8 8 8 7 7 6 5
11 11 17 11 8 11 12 10 10 8 6 5 4 3 2 2 3 3 3 5 5 6 6 6 7 8 8 9 10 10 10 10 9 9 9 8 8 8 7 7 7 6 6 6
11 15 14 9 9 10 12 10 8 8 6 4 3 4 4 2 1 2 3 3 4 4 5 5 6 8 9 9 9 9 9 10 10 10 9 9 8 8 7 7 7 6 6 6
12 14 15 9 8 7 9 11 7 6 6 5 5 7 4 1 1 1 2 3 3 4 5 5 6 7 9 9 9 8 8 8 8 9 9 9 8 7 7 6 6 6 5 5
15 14 9 3 5 8 12 7 5 6 6 6 6 5 1 1 1 1 2 2 3 4 5 5 6 6 7 7 7 7 7 7 7 7 8 7 7 7 7 6 6 5 5 5
13 14 10 4 7 8 3 1 3 4 4 4 3 1 2 2 1 2 2 3 4 4 4 4 6 6 6 6 6 6 7 7 7 6 6 6 7 6 6 6 7 6 5 5
8 6 2 4 3 2 1 2 2 3 3 2 2 2 1 2 2 2 3 3 3 4 4 3 4 5 6 5 6 6 6 6 6 6 6 6 6 6 6 6 5 5 5 5
6 6 4 3 2 2 3 3 2 2 2 3 3 2 2 2 2 2 2 3 3 4 3 3 3 4 4 5 6 7 6 6 6 6 6 6 5 5 5 5 5 5 5 5
8 6 4 5 3 2 2 2 2 2 2 2 3 2 2 2 2 2 2 2 3 3 3 3 3 3 4 5 6 7 6 6 5 5 5 5 4 3 5 4 3 4 4 4
7 5 5 4 3 2 2 3 3 2 2 2 2 2 2 2 2 2 2 2 3 3 3 3 4 4 3 4 5 6 6 5 5 5 5 5 5 4 1 0 3 2 1 2
6 5 4 3 3 3 3 2 2 2 2 2 2 2 2 1 2 2 2 3 3 3 4 4 4 3 3 4 5 5 5 5 4 4 5 4 4 4 4 2 2 3 4 4
6 5 5 5 4 3 3 2 2 2 2 2 2 2 1 1 1 2 2 3 4 4 4 4 4 3 3 4 4 5 5 4 4 4 4 4 4 4 5 5 4 4 5 7
7 7 6 5 4 4 4 3 3 3 2 2 2 2 2 2 2 2 2 3 4 4 4 4 3 3 3 4 4 4 4 4 4 4 4 5 5 5 5 5 5 4 3 5
6 6 6 6 5 5 5 5 4 4 3 2 2 2 2 2 2 2 2 3 4 4 3 3 3 3 3 3 4 3 3 2 3 4 4 4 5 5 5 4 4 4 4 3
7 7 7 6 6 5 5 5 4 4 3 3 3 3 2 3 3 3 3 3 4 4 4 4 3 3 3 3 4 3 2 3 4 4 4 4 4 5 4 4 4 4 4 3
6 6 6 6 5 5 4 4 4 4 4 3 3 3 3 3 3 3 3 3 3 3 3 3 3 3 3 3 3 2 2 3 3 3 3 4 4 4 4 4 4 5 4 4
4 5 5 5 4 4 4 4 4 4 4 4 4 4 4 4 4 4 3 3 3 3 3 2 2 3 3 3 2 3 2 3 3 3 3 4 4 4 4 4 4 5 5 4
4 4 4 4 3 3 3 3 3 3 3 4 4 5 4 4 4 3 3 3 2 1 2 2 2 2 2 2 3 2 3 3 3 3 4 4 4 4 4 5 5 5 5 5
4 4 4 3 3 3 3 3 3 3 3 3 4 4 4 3 3 4 3 2 1 2 2 3 2 2 2 1 3 2 3 3 3 3 4 4 4 4 4 4 5 5 5 5
4 4 4 3 3 2 3 3 3 4 4 4 4 4 4 3 3 2 1 1 2 2 3 3 3 1 0 2 2 2 2 2 2 2 3 3 4 4 4 5 5 5 5 5
3 2 2 3 2 2 2 3 3 3 4 4 4 3 3 2 2 2 2 1 2 2 2 1 1 2 1 2 1 1 2 2 2 2 3 3 3 4 4 5 5 5 5 5
2 2 2 2 2 2 2 2 2 2 3 3 3 3 2 2 2 2 2 2 2 2 2 2 2 1 3 1 0 1 1 2 2 2 2 2 2 3 3 3 4 3 3 4
3 3 2 2 2 2 3 3 4 3 3 3 3 3 2 2 2 2 2 3 4 4 2 3 4 4 3 1 1 1 1 2 2 2 2 2 2 3 3 3 3 3 3 4
3 2 2 2 2 2 2 2 2 2 3 3 2 2 2 2 2 2 2 3 4 3 1 1 2 3 2 1 1 1 1 1 2 2 2 2 3 3 3 3 4 4 4 4
3 3 3 3 3 2 2 2 2 2 2 2 2 2 2 2 1 2 2 2 3 2 2 1 1 1 1 1 1 1 2 2 2 2 2 3 3 3 3 4 3 3 4 4
Wind_Direction
236 233 219 216 217 218 230 241 247 243 245 250 254 268 214 186 172 172 170 171 173 177 173 173 177 181 182 183 181 180 180 182 180 180 180 180 184 188 188 193 195 187 186 189
227 228 230 230 228 225 229 238 245 251 251 263 255 244 204 189 184 181 182 181 179 178 178 181 180 180 179 181 179 178 182 185 180 179 180 183 186 184 185 189 190 185 186 187
225 222 230 233 229 226 226 234 243 246 250 245 238 231 233 211 195 187 187 186 183 180 180 180 181 181 181 179 176 177 181 183 183 183 183 185 184 182 184 185 184 185 186 186
225 211 229 231 219 222 226 232 237 248 256 250 245 225 210 209 196 188 184 184 178 177 176 177 174 175 174 171 173 176 177 178 184 186 185 184 183 183 183 183 184 184 185 185
223 222 225 215 207 213 218 227 230 237 238 236 223 204 185 164 178 175 176 179 175 170 168 164 166 167 164 168 172 176 179 178 184 187 187 185 185 184 183 183 184 188 186 187
224 229 229 214 194 212 221 228 218 230 231 232 232 235 212 150 194 178 162 158 157 148 145 154 158 161 164 169 172 180 182 181 182 185 187 187 184 183 179 182 186 189 184 188
225 230 233 196 178 191 216 222 198 219 228 229 237 269 258 189 182 166 139 144 146 144 144 148 152 155 166 170 174 174 173 173 176 181 184 183 178 178 177 180 183 189 182 184
220 226 223 162 186 205 222 173 205 212 220 226 232 218 194 184 153 152 148 147 149 144 141 149 156 160 167 173 170 167 167 167 167 171 176 172 172 174 177 179 182 184 183 188
221 224 135 159 186 211 245 238 240 224 210 202 197 193 180 163 156 161 163 156 152 149 147 155 162 165 170 170 163 162 164 164 165 167 167 163 166 172 178 186 192 190 190 194
224 214 201 202 209 239 260 254 239 223 207 189 194 196 181 169 159 163 173 169 160 158 161 161 163 168 169 168 165 165 165 164 165 164 166 167 173 178 186 189 197 200 200 203
227 219 215 214 224 249 250 227 220 209 197 190 185 191 188 179 177 171 178 171 169 173 172 172 167 167 164 166 169 170 169 168 172 174 169 166 177 190 204 200 203 211 211 210
231 215 232 222 217 242 233 214 204 201 206 196 189 189 196 198 189 184 182 171 171 179 176 169 166 166 163 172 176 174 174 178 183 185 177 179 175 184 110 209 114 137 317 264
259 261 259 251 247 241 233 220 206 199 203 210 201 191 194 203 206 193 184 179 175 175 168 163 163 164 164 176 179 182 186 187 193 191 188 196 198 198 197 187 169 191 205 221
241 238 243 236 234 224 224 224 203 190 198 198 185 180 173 185 199 196 195 185 169 160 160 161 164 169 170 177 183 190 197 191 201 201 203 204 208 214 215 212 212 217 206 202
239 232 227 226 229 231 226 211 200 195 184 181 180 187 186 195 202 196 192 181 165 159 163 163 170 174 175 180 184 193 199 200 207 216 215 211 210 217 221 220 224 224 214 191
225 217 213 218 224 227 220 207 201 198 191 191 199 208 218 210 199 189 188 181 168 170 172 175 174 172 175 177 183 190 192 181 212 217 218 214 213 217 220 222 225 228 230 230
214 211 209 214 220 220 213 207 205 200 193 197 205 209 206 191 183 183 189 183 172 174 179 179 173 172 177 183 188 189 187 179 197 215 216 217 216 218 220 224 226 229 235 228
230 226 223 219 216 212 209 207 206 204 203 203 211 206 199 185 179 176 176 167 167 173 178 176 169 174 182 189 198 202 201 202 208 213 214 217 223 227 231 232 233 239 244 225
206 207 207 203 198 197 198 197 199 198 194 193 197 197 194 186 178 178 176 177 182 184 176 164 161 185 186 194 213 208 212 218 221 217 218 214 225 231 234 241 243 243 245 243
185 187 181 178 178 182 185 183 186 189 188 188 185 183 182 183 178 178 183 193 206 194 158 156 173 190 192 205 247 220 213 218 222 220 221 225 226 229 237 243 246 245 246 246
174 171 169 167 167 172 178 183 187 189 188 188 181 179 181 178 176 180 188 190 179 178 166 158 184 194 201 219 251 242 226 224 225 224 227 230 231 234 240 244 249 252 252 251
164 168 172 166 158 161 172 180 183 180 174 171 167 170 169 171 171 163 177 203 184 195 186 177 181 156 225 248 236 241 236 235 239 241 242 247 245 244 247 253 255 257 258 256
154 153 149 148 155 162 158 162 170 171 166 164 165 167 171 176 179 169 168 186 179 170 174 159 125 119 256 234 233 239 247 253 258 253 247 251 256 257 257 259 261 261 259 261
124 117 114 118 131 135 135 141 147 146 144 146 145 147 157 150 139 141 134 128 129 145 161 122 126 177 229 196 248 278 269 260 260 263 266 266 267 264 260 260 263 265 265 265
113 108 104 108 121 127 137 141 134 133 138 130 126 129 135 134 144 144 147 148 153 164 158 143 170 208 214 184 180 229 257 285 293 292 281 278 278 278 278 276 274 269 272 275
109 106 92 94 98 113 123 125 128 129 128 119 112 112 112 118 129 149 167 162 160 171 181 162 167 196 198 183 195 245 266 257 260 269 290 292 288 285 281 276 273 274 277 282
114 115 109 104 99 96 105 115 118 120 126 131 130 134 142 147 153 170 181 169 159 162 163 168 173 181 214 238 249 265 270 270 276 292 297 293 290 286 284 279 278 281 284 287
Height
1468 1466 1467 1471 1473 1475 1476 1473 1476 1474 1474 1474 1477 1480 1483 1486 1488 1491 1493 1496 1498 1501 1503 1505 1507 1510 1513 1516 1519 1522 1524 1526 1528 1530 1532 1533 1534 1536 1537 1538 1538 1538 1539 1539
1474 1469 1469 1472 1470 1471 1473 1472 1472 1472 1473 1474 1478 1481 1484 1486 1488 1489 1492 1494 1497 1499 1501 1503 1505 1507 1510 1513 1515 1518 1521 1523 1525 1526 1528 1529 1530 1532 1533 1534 1535 1536 1536 1537
1474 1470 1473 1476 1468 1468 1470 1469 1470 1472 1473 1475 1478 1481 1484 1485 1487 1488 1490 1492 1494 1496 1498 1500 1502 1505 1507 1510 1512 1515 1517 1519 1521 1523 1524 1526 1527 1529 1530 1531 1532 1533 1534 1534
1470 1477 1488 1466 1460 1462 1466 1468 1469 1471 1473 1475 1478 1481 1483 1485 1486 1488 1490 1491 1493 1494 1496 1498 1500 1502 1505 1507 1509 1511 1513 1515 1518 1520 1521 1523 1524 1525 1527 1528 1529 1530 1530 1531
1469 1474 1470 1465 1463 1464 1467 1470 1469 1471 1473 1476 1477 1479 1482 1484 1485 1487 1488 1490 1491 1492 1494 1495 1497 1499 1502 1504 1507 1509 1510 1511 1514 1516 1518 1519 1521 1522 1523 1524 1525 1526 1527 1528
1470 1473 1472 1460 1459 1463 1467 1471 1470 1472 1473 1475 1476 1474 1477 1482 1484 1485 1486 1487 1489 1490 1492 1493 1495 1497 1499 1501 1503 1505 1507 1509 1510 1513 1514 1516 1517 1519 1520 1521 1522 1524 1524 1525
1468 1468 1459 1457 1460 1464 1472 1469 1469 1471 1473 1474 1475 1476 1479 1481 1482 1484 1485 1485 1487 1488 1489 1491 1492 1494 1496 1498 1500 1502 1504 1506 1508 1509 1511 1513 1514 1515 1517 1518 1519 1521 1521 1522
1464 1467 1464 1459 1460 1463 1465 1467 1468 1470 1472 1474 1476 1477 1478 1479 1481 1482 1483 1484 1485 1486 1487 1488 1490 1491 1494 1496 1498 1500 1501 1503 1504 1506 1508 1510 1511 1512 1514 1515 1516 1517 1518 1519
1456 1459 1460 1461 1463 1466 1467 1468 1469 1470 1472 1474 1475 1476 1477 1478 1480 1481 1482 1483 1484 1485 1486 1487 1488 1489 1491 1493 1495 1497 1499 1500 1502 1503 1505 1506 1508 1509 1511 1512 1514 1515 1515 1516
1457 1457 1461 1463 1464 1466 1468 1469 1469 1471 1472 1473 1474 1475 1476 1477 1478 1480 1481 1481 1482 1484 1484 1485 1486 1488 1489 1491 1493 1494 1496 1498 1499 1501 1502 1504 1505 1507 1508 1509 1510 1511 1512 1513
1457 1458 1461 1462 1464 1465 1467 1468 1469 1470 1471 1472 1473 1473 1474 1476 1477 1478 1479 1480 1481 1482 1483 1484 1484 1486 1487 1489 1490 1492 1494 1495 1497 1499 1500 1501 1503 1504 1505 1506 1507 1508 1509 1509
1453 1457 1458 1460 1463 1465 1465 1466 1467 1468 1469 1470 1471 1472 1473 1474 1475 1476 1477 1478 1478 1480 1481 1482 1483 1484 1486 1487 1489 1490 1492 1493 1495 1497 1498 1499 1500 1501 1501 1503 1503 1504 1505 1506
1457 1458 1459 1460 1462 1463 1464 1465 1466 1467 1468 1469 1470 1471 1472 1472 1473 1474 1475 1476 1476 1478 1479 1480 1481 1482 1483 1485 1487 1488 1489 1491 1493 1494 1495 1496 1497 1498 1498 1499 1499 1500 1501 1501
1457 1457 1457 1459 1460 1461 1462 1463 1464 1465 1466 1467 1468 1469 1470 1471 1472 1472 1473 1474 1475 1476 1478 1479 1479 1480 1482 1483 1485 1486 1487 1489 1490 1491 1492 1493 1494 1495 1496 1496 1496 1496 1497 1498
1454 1455 1455 1457 1458 1459 1460 1461 1462 1463 1464 1466 1467 1468 1469 1469 1470 1471 1472 1473 1474 1475 1476 1477 1478 1479 1480 1482 1483 1484 1485 1486 1487 1488 1490 1490 1491 1492 1493 1493 1494 1494 1495 1494
1451 1452 1453 1454 1455 1456 1457 1459 1460 1461 1463 1464 1465 1466 1467 1468 1469 1470 1471 1472 1473 1474 1475 1475 1476 1477 1478 1480 1481 1482 1482 1483 1484 1485 1486 1487 1488 1489 1489 1490 1491 1491 1491 1491
1448 1449 1450 1452 1453 1454 1455 1457 1458 1459 1461 1462 1463 1464 1465 1466 1467 1468 1469 1471 1471 1472 1473 1474 1474 1476 1477 1478 1479 1480 1480 1480 1481 1482 1484 1484 1485 1486 1486 1486 1487 1487 1488 1488
1446 1447 1448 1449 1451 1452 1454 1455 1456 1458 1459 1460 1461 1463 1464 1465 1465 1467 1468 1469 1470 1471 1471 1472 1473 1474 1475 1475 1476 1477 1478 1478 1479 1480 1481 1481 1482 1483 1482 1483 1483 1484 1484 1484
1444 1445 1446 1448 1449 1451 1452 1453 1454 1456 1456 1458 1459 1461 1462 1463 1464 1465 1466 1467 1468 1469 1470 1471 1471 1472 1473 1473 1473 1474 1475 1476 1477 1477 1478 1478 1479 1479 1479 1479 1480 1480 1480 1480
1443 1444 1445 1447 1448 1449 1450 1451 1452 1454 1455 1456 1457 1459 1460 1462 1463 1464 1465 1465 1466 1467 1468 1469 1469 1470 1471 1471 1472 1472 1473 1474 1474 1474 1475 1475 1475 1475 1475 1476 1476 1477 1477 1477
1443 1444 1445 1446 1447 1448 1449 1450 1451 1453 1454 1455 1456 1458 1459 1460 1461 1462 1463 1464 1465 1466 1466 1467 1468 1469 1469 1469 1470 1471 1471 1471 1471 1472 1472 1472 1471 1471 1472 1472 1472 1473 1473 1472
1442 1443 1444 1445 1446 1447 1448 1449 1450 1451 1452 1454 1455 1457 1458 1459 1460 1461 1461 1462 1463 1464 1465 1466 1467 1467 1467 1467 1468 1469 1469 1469 1469 1469 1469 1469 1468 1468 1468 1468 1468 1468 1468 1468
1441 1442 1443 1444 1445 1446 1447 1448 1449 1450 1451 1452 1454 1455 1457 1458 1459 1459 1460 1461 1462 1462 1463 1464 1464 1464 1465 1465 1466 1467 1467 1466 1466 1466 1466 1465 1465 1465 1465 1465 1464 1464 1463 1463
1441 1442 1443 1444 1445 1445 1446 1447 1448 1449 1450 1451 1453 1454 1455 1457 1458 1459 1459 1460 1461 1461 1462 1462 1462 1462 1463 1463 1464 1464 1464 1464 1464 1464 1464 1463 1463 1462 1461 1461 1460 1460 1460 1459
1441 1442 1443 1443 1444 1445 1446 1447 1448 1449 1450 1451 1453 1454 1455 1456 1457 1458 1458 1459 1459 1460 1461 1461 1460 1461 1461 1461 1462 1462 1462 1462 1462 1462 1461 1460 1460 1459 1459 1458 1457 1457 1456 1456
1442 1443 1443 1444 1445 1445 1446 1447 1448 1449 1450 1451 1453 1454 1455 1455 1456 1457 1457 1458 1459 1459 1460 1460 1460 1460 1461 1461 1461 1461 1461 1460 1460 1459 1458 1458 1457 1457 1456 1455 1455 1454 1453 1452
1443 1444 1445 1446 1447 1447 1447 1448 1448 1450 1451 1452 1453 1454 1454 1455 1456 1456 1457 1458 1458 1458 1459 1459 1459 1459 1460 1460 1460 1460 1459 1459 1458 1457 1456 1456 1455 1455 1454 1453 1452 1451 1450 1449